Simultaneous Nadir Overpasses (SNOs) Predictions

Prediction of SNOs between AQUA and NOAA-19 Satellite Orbit:

Table of predicted SNOs for the next 14.0 days since TLE Epoch: 10/9/2018
Index Date (AQUA) Time (AQUA) Lat,Lon (AQUA) SZA (AQUA ) Date (NOAA-19) Time (NOAA-19) Lat,Lon (NOAA-19) SZA (NOAA-19 ) Distance(km) Time Diff (sec)
1 10/11/2018 03:11:56 80.68, 95.07 89.15 10/11/2018 03:10:47 80.69, 94.91 89.20 3.06 69
2 10/11/2018 04:01:22 -80.69, -97.48 90.81 10/11/2018 04:01:51 -80.70, -97.42 90.82 1.45 29
3 10/13/2018 08:45:41 -80.75,-169.18 89.90 10/13/2018 08:44:30 -80.59,-170.84 89.85 34.44 71
4 10/13/2018 09:35:05 80.67, -0.70 89.98 10/13/2018 09:35:17 80.70, -0.81 90.01 3.22 12
5 10/15/2018 15:08:49 -80.69, 95.72 89.19 10/15/2018 15:08:54 -80.70, 95.86 89.19 2.68 5
6 10/17/2018 20:42:32 80.68,-167.66 91.61 10/17/2018 20:42:20 80.69,-167.59 91.62 1.66 12
7 10/20/2018 02:16:16 -80.70, -71.25 87.57 10/20/2018 02:15:57 -80.68, -71.10 87.59 3.06 19
8 10/20/2018 03:05:42 80.69, 96.44 92.44 10/20/2018 03:06:51 80.70, 96.59 92.41 2.74 69
9 10/22/2018 07:49:58 80.68, 25.55 93.18 10/22/2018 07:49:23 80.68, 25.51 93.20 0.79 35




NCC Satellite Simultaneous Nadir Overpasses (SNOs) Prediction Service
